Location: Villingen
(48.0639°N, 8.4609°E)
Time: 22:56:14
(UTC+01:00)

ISS - Pass Details

Date: 10 January 2018
Orbit: 402 x 407 km, 51.6° (Epoch: 18 January)

Event Time Altitude Azimuth Distance (km) Brightness Sun altitude
Exits shadow 06:31:22 44° 305° (NW) 576 -3.5 -16.5°
Maximum altitude 06:32:16 75° 20° (NNE) 424 -3.8 -16.4°
Drops below altitude 10° 06:35:34 10° 107° (ESE) 1,466 0.4 -15.8°
Sets 06:37:39 0° 109° (ESE) 2,325 1.9 -15.5°
